Location: *
(32.8140°S, 174.6161°E)
Time: 00:20:22
(UTC+00:00)

Cosmos 1605 Rocket - Pass Details

Date: 10 December 2019
Orbit: 946 x 1005 km, 82.9° (Epoch: 17 January)

Event Time Altitude Azimuth Distance (km) Brightness Sun altitude
Rises 12:44:28 0° 183° (S) 3,718 8.1 -33.8°
Reaches altitude 10° 12:47:03 10° 180° (S) 2,754 7.2 -33.7°
Enters shadow 12:52:27 60° 140° (SE) 1,113 4.4 -33.5°
